Location: Unspecified
(52.0000°N, 4.4000°E)
Time: 00:29:29
(UTC+00:00)

Cosmos 2058 Rocket - Pass Details

Date: 14 May 2025
Orbit: 604 x 634 km, 82.5° (Epoch: 23 June)

Event Time Altitude Azimuth Distance (km) Brightness Sun altitude
Exits shadow 20:51:12 10° 171° (S) 2,024 5.2 -10.3°
Reaches altitude 10° 20:51:13 10° 170° (S) 2,016 5.2 -10.3°
Maximum altitude 20:55:34 52° 95° (E) 788 3.3 -10.7°
Drops below altitude 10° 20:59:56 10° 19° (NNE) 2,024 6.2 -11.2°
Sets 21:02:12 0° 15° (NNE) 2,933 7.1 -11.4°
